Location: A�t Lahcen
(32.8243°N, 5.4246°W)
Time: 01:28:17
(UTC+00:00)

YAOGAN 6 - Pass Details

Date: 27 January 2021
Orbit: 465 x 502 km, 97.0° (Epoch: 27 February)

Event Time Altitude Azimuth Distance (km) Brightness Sun altitude
Rises 06:16:45 0° 5° (N) 2,603 6.2 -13.4°
Reaches altitude 10° 06:18:52 10° 1° (N) 1,714 5.2 -13.0°
Maximum altitude 06:22:29 56° 284° (WNW) 603 2.6 -12.3°
Drops below altitude 10° 06:26:04 10° 205° (SSW) 1,693 5.2 -11.5°
Sets 06:28:09 0° 201° (SSW) 2,567 6.2 -11.1°
